Regional Weather Roundup
Issued by NWS

Home | Current Version | Previous Version | Text Only | Print | Product List | Glossary Off
Versions: 1 2 3 4 5 6 7 8 9 10 11 12 13 14 15 16 17 18 19 20 21 22 23 24 25 26 27 28

000
ASUS45 KSLC 302110
RWRUT

UTAH REGIONAL WEATHER ROUNDUP
NATIONAL WEATHER SERVICE SALT LAKE CITY UT
300 PM MDT SAT APR 30 2016

UTZ001>011-023>025-302200-

NORTHERN UTAH

CITY           SKY/WX    TMP DP  RH WIND       PRES   REMARKS
BRIGHAM CITY   PTSUNNY   58  26  29 NW6       29.97S
HILL AFB       PTSUNNY   57  29  34 E12G26    29.95S
LOGAN          CLOUDY    57  33  40 NE5       29.98S
OGDEN          PTSUNNY   59  28  30 NE17G25   29.94F
PROVO AIRPORT  PTSUNNY   61  34  36 W12       29.90F
SALT LAKE CITY PTSUNNY   59  30  33 N12       29.92R
VERNAL         CLOUDY    47  31  53 NE23G31   30.00R
WENDOVER       MOSUNNY   55  39  54 N17G23    29.99S
HEBER CITY     CLOUDY    50  27  40 CALM      29.93R

$$

UTZ012>022-026-027-302200-

SOUTHERN/CENTRAL UTAH

CITY           SKY/WX    TMP DP  RH WIND       PRES   REMARKS
BLANDING       CLOUDY    49  37  62 NW3       29.94S
BRYCE CANYON   CLOUDY    41  36  82 SE9       29.92S
CEDAR CITY     LGT RAIN  45  40  82 NW7       29.85R
DELTA          MOSUNNY   59  34  38 N17G24    29.89S
HANKSVILLE     PTSUNNY   59  32  36 N8        29.88S
MILFORD        CLOUDY    58  36  43 N21G30    29.84F
MOAB/CYNLANDS  CLOUDY    58  30  34 VRB7      29.85S
PRICE          PTSUNNY   53  27  36 NE25G35   29.93R
ST GEORGE      CLOUDY    63  43  48 E9        29.81S
KANAB          CLOUDY    48  45  87 NE17      29.89F

$$

REGIONAL REPORTS     COLORADO/ARIZONA

CITY           SKY/WX    TMP DP  RH WIND       PRES   REMARKS
CRAIG, CO      CLOUDY    41  34  76 E9        29.97R
GRAND JUNCTION CLOUDY    52  31  44 VRB3      29.89S
RIFLE          CLOUDY    51  31  46 N12G17    29.90S
MONTROSE       CLOUDY    51  33  50 SW12G23   29.89R
CORTEZ         CLOUDY    54  32  43 VRB6      29.84F
PAGE, AZ       CLOUDY    52  43  71 N10       29.86S
GRAND CANYON   CLOUDY    46  39  76 W10       29.85F
KINGMAN        CLOUDY    50  44  80 MISG      29.79F
FLAGSTAFF      CLOUDY    47  33  58 CALM      29.83F

$$

REGIONAL REPORTS    NEVADA/IDAHO/WYOMING

CITY           SKY/WX    TMP DP  RH WIND       PRES   REMARKS
LAS VEGAS, NV  PTSUNNY   65  47  52 N12       29.74S
ELY            CLOUDY    50  38  63 N22G28    29.96S
ELKO           CLOUDY    56  34  43 NE13      30.01S
POCATELLO, ID  CLOUDY    56  36  47 N12       30.03S
BURLEY         CLOUDY    53  39  59 N6        30.04S
EVANSTON, WY   CLOUDY    41  29  62 E18G26    30.04R
ROCK SPRINGS   CLOUDY    39  31  72 NE29G36   30.07R WCI  27
KEMMERER         N/A     37  32  81 SE15      30.06R WCI  28

$$




USA.gov is the U.S. government's official web portal to all federal, state and local government web resources and services.